Weather History for KMWA - July, 2013

Change the Weather History Date:

Sunday, July 14, 2013

  Actual Average Record
Temperature  
Mean Temperature 76 °F -  
Max Temperature 87 °F 88 °F 107 °F (1997)
Min Temperature 64 °F 66 °F 52 °F (1975)
Cooling Degree Days 10    
Growing Degree Days 26 (Base 50)    
Moisture  
Dew Point 69 °F    
Average Humidity 84    
Maximum Humidity 100    
Minimum Humidity 51    
Precipitation  
Precipitation 0.00 in - - ()
Sea Level Pressure  
Sea Level Pressure 30.11 in    
Wind  
Wind Speed 4 mph (East)    
Max Wind Speed 14 mph    
Max Gust Speed -    
Visibility 11 miles    
Events Rain    
Averages and records for this station are not official NWS values.
T = Trace of Precipitation, MM = Missing Value Source: NWS Daily Summary

Daily Weather History Graph

Daily Weather History Graph

Search for Another Location

Airport or City:

Trip Planner

Search our weather history database for the weather conditions in past years. The results will help you decide how hot, cold, wet, or windy it might be!

Date:

Astronomy

Jul. 14, 2013 Rise Set
Actual Time 5:45 AM CDT 8:17 PM CDT
Civil Twilight 5:15 AM CDT 8:48 PM CDT
Nautical Twilight 4:37 AM CDT 9:26 PM CDT
Astronomical Twilight 3:55 AM CDT 10:07 PM CDT
Moon 11:54 AM CDT (7/14) 11:38 PM CDT (7/14)
Length of Visible Light 15h 33m
Length of Day
14h 32m
Waxing Crescent, 35% of the Moon is Illuminated
Jul 14
Waxing Crescent
Jul 15
First Quarter
Jul 22
Full
Jul 29
Last Quarter
Aug 6
New

Hourly Weather History & Observations

Time (CDT) Temp. Heat Index Dew Point Humidity Pressure Visibility Wind Dir Wind Speed Gust Speed Precip Events Conditions
12:15 AM 69.8 °F - 64.4 °F 83% 30.06 in 10.0 mi ENE 3.5 mph - N/A   Clear
12:35 AM 69.8 °F - 64.4 °F 83% 30.07 in 10.0 mi East 4.6 mph - N/A   Clear
12:55 AM 69.8 °F - 64.4 °F 83% 30.07 in 10.0 mi East 4.6 mph - N/A   Clear
1:15 AM 69.8 °F - 64.4 °F 83% 30.07 in 10.0 mi NE 3.5 mph - N/A   Clear
1:35 AM 69.8 °F - 64.4 °F 83% 30.06 in 10.0 mi Calm Calm - N/A   Clear
1:55 AM 68.0 °F - 64.4 °F 88% 30.07 in 10.0 mi ENE 4.6 mph - N/A   Clear
2:15 AM 69.8 °F - 64.4 °F 83% 30.07 in 10.0 mi East 4.6 mph - N/A   Clear
2:35 AM 68.0 °F - 64.4 °F 88% 30.07 in 10.0 mi Calm Calm - N/A   Clear
2:55 AM 66.2 °F - 64.4 °F 94% 30.07 in 7.0 mi ENE 4.6 mph - N/A   Clear
3:15 AM 68.0 °F - 64.4 °F 88% 30.07 in 10.0 mi ENE 3.5 mph - N/A   Clear
3:35 AM 66.2 °F - 64.4 °F 94% 30.07 in 7.0 mi Calm Calm - N/A   Clear
3:55 AM 66.2 °F - 64.4 °F 94% 30.07 in 7.0 mi ENE 3.5 mph - N/A   Clear
4:15 AM 66.2 °F - 64.4 °F 94% 30.08 in 7.0 mi Calm Calm - N/A   Clear
4:35 AM 64.4 °F - 64.4 °F 100% 30.08 in 5.0 mi Calm Calm - N/A   Clear
4:55 AM 64.4 °F - 62.6 °F 94% 30.09 in 4.0 mi Calm Calm - N/A   Clear
5:15 AM 64.4 °F - 64.4 °F 100% 30.10 in 5.0 mi NE 3.5 mph - N/A   Clear
5:35 AM 66.2 °F - 64.4 °F 94% 30.10 in 7.0 mi Calm Calm - N/A   Clear
5:55 AM 64.4 °F - 64.4 °F 100% 30.10 in 4.0 mi Calm Calm - N/A   Clear
6:15 AM 64.4 °F - 64.4 °F 100% 30.10 in 3.0 mi Calm Calm - N/A   Clear
6:55 AM 66.2 °F - 66.2 °F 100% 30.10 in 20.0 mi ENE 6.9 mph - N/A   Scattered Clouds
7:55 AM 69.8 °F - 68.0 °F 94% 30.12 in 20.0 mi East 9.2 mph - N/A   Scattered Clouds
8:55 AM 71.6 °F - 69.8 °F 94% 30.13 in 20.0 mi ESE 6.9 mph - N/A   Mostly Cloudy
9:55 AM 77.0 °F - 69.8 °F 78% 30.14 in 20.0 mi South 8.1 mph - N/A   Mostly Cloudy
10:55 AM 80.6 °F 84.6 °F 71.6 °F 74% 30.14 in 20.0 mi South 6.9 mph - N/A   Mostly Cloudy
11:55 AM 84.2 °F 88.4 °F 69.8 °F 62% 30.14 in 20.0 mi South 9.2 mph - N/A   Scattered Clouds
12:53 PM 86.0 °F 88.2 °F 66.2 °F 51% 30.14 in 20.0 mi SSE 9.2 mph - N/A   Mostly Cloudy
1:53 PM 84.2 °F 87.3 °F 68.0 °F 58% 30.14 in 20.0 mi SE 11.5 mph - N/A   Mostly Cloudy
2:53 PM 86.0 °F 89.4 °F 68.0 °F 55% 30.11 in 20.0 mi ESE 9.2 mph - N/A   Mostly Cloudy
3:53 PM 86.0 °F 90.4 °F 69.8 °F 58% 30.11 in 20.0 mi ENE 13.8 mph - N/A   Mostly Cloudy
4:56 PM 87.8 °F 92.6 °F 69.8 °F 55% 30.10 in 20.0 mi East 11.5 mph - N/A   Mostly Cloudy
5:54 PM 84.2 °F 88.4 °F 69.8 °F 62% 30.11 in 20.0 mi East 8.1 mph - N/A   Scattered Clouds
6:35 PM 82.4 °F 87.2 °F 71.6 °F 70% 30.11 in 10.0 mi ENE 3.5 mph - N/A   Scattered Clouds
6:55 PM 84.2 °F 89.6 °F 71.6 °F 66% 30.12 in 10.0 mi Calm Calm - N/A   Scattered Clouds
7:15 PM 84.2 °F 89.6 °F 71.6 °F 66% 30.12 in 10.0 mi Calm Calm - N/A   Clear
7:35 PM 82.4 °F 89.5 °F 75.2 °F 79% 30.13 in 10.0 mi Calm Calm - N/A   Scattered Clouds
7:55 PM 80.6 °F 85.4 °F 73.4 °F 79% 30.13 in 10.0 mi Calm Calm - N/A   Mostly Cloudy
8:15 PM 80.6 °F 85.4 °F 73.4 °F 79% 30.13 in 10.0 mi SW 4.6 mph - N/A   Overcast
8:35 PM 78.8 °F - 73.4 °F 83% 30.14 in 10.0 mi WSW 4.6 mph - N/A   Mostly Cloudy
8:55 PM 78.8 °F - 73.4 °F 83% 30.15 in 10.0 mi Calm Calm - N/A Rain Light Rain
9:15 PM 77.0 °F - 73.4 °F 89% 30.15 in 10.0 mi Calm Calm - N/A   Scattered Clouds
9:35 PM 75.2 °F - 73.4 °F 94% 30.16 in 10.0 mi Calm Calm - N/A   Clear
9:55 PM 75.2 °F - 73.4 °F 94% 30.16 in 10.0 mi Calm Calm - N/A   Clear
10:15 PM 75.2 °F - 73.4 °F 94% 30.17 in 10.0 mi Calm Calm - N/A   Clear
10:35 PM 75.2 °F - 73.4 °F 94% 30.16 in 10.0 mi Calm Calm - N/A   Clear
10:55 PM 73.4 °F - 71.6 °F 94% 30.17 in 7.0 mi Calm Calm - N/A   Clear
11:15 PM 73.4 °F - 73.4 °F 100% 30.16 in 7.0 mi NE 3.5 mph - N/A   Unknown
11:35 PM 73.4 °F - 73.4 °F 100% 30.17 in 5.0 mi NE 3.5 mph - N/A   Clear
11:55 PM 73.4 °F - 73.4 °F 100% 30.17 in 4.0 mi Calm Calm - N/A   Clear